{"data":{"norad_id":43912,"epoch":"2026-05-25T04:30:04.536864Z","epoch_age_seconds":52045,"freshness":"FRESH","line1":"1 43912U 18112D   26145.18755251  .00000058  00000+0  86015-4 0  9990","line2":"2 43912  50.0117  25.0625 0015339 265.3215  94.5949 14.29021271384295","mean_motion":14.29021271,"eccentricity":0.0015339,"inclination_deg":50.0117,"raan_deg":25.0625,"arg_perigee_deg":265.3215,"mean_anomaly_deg":94.5949,"bstar":8.6015e-5,"rev_number":38429,"period_min":100.76826910997,"perigee_km":784.00130722393,"apogee_km":806.00706976198,"semimajor_km":7173.141188493,"source":"CELESTRAK","updated_at":"2026-05-25T13:37:55.928515Z"}}